[[{"header":{"parameterUnit":"m.s-1","parameterCategory":1,"la1":30.2991,"la2":30.254,"lo1":-89.0895,"lo2":-89.0444,"dy":0.0017,"dx":0.0017,"nx":28,"ny":28,"refTime":"2024-07-07T09:00:00:Z","depth":0,"parameterNumber":2,"parameterNumberName":"U-component_of_WINDS"},"data":[0,0,0,0,0,0,0,0,0,0,0,0,0,0,0,0,0,0,0,0,0,0,0,0,0,0,0,0,0,0,0,0,0,0,0,0,0,0,0,0,0,0,0,0,0,0,0,0,0,0,0,0,0,0,0,0,0,0,-1.5094,-1.5093,0,-1.5048,-1.5048,-1.5047,-1.4989,-1.4988,-1.4987,-1.4986,-1.4939,-1.4939,-1.4938,0,0,0,0,0,0,0,0,0,0,0,0,0,-1.513,-1.5129,-1.5094,-1.5093,-1.5092,-1.5048,-1.5048,-1.5047,-1.4989,-1.4988,-1.4986,-1.4985,-1.4939,-1.4939,-1.4938,0,0,0,0,0,0,0,0,0,0,0,0,0,-1.5102,-1.5129,-1.5094,-1.5058,-1.5054,-1.5048,-1.5048,-1.5047,-1.4989,-1.4988,-1.4986,-1.4985,-1.4939,-1.4939,-1.4938,-1.4963,0,0,-1.4937,-1.4936,0,0,0,0,0,0,0,0,-1.5104,-1.5101,-1.5064,-1.5061,-1.5056,-1.5023,-1.5043,-1.5019,-1.4989,-1.5014,-1.4986,-1.4984,-1.4968,-1.4965,-1.496,-1.4961,-1.4959,-1.4936,-1.4936,-1.4936,-1.4936,0,0,0,0,0,0,0,-1.5106,-1.5102,-1.5076,-1.5063,-1.5059,-1.5044,-1.5039,-1.5038,-1.4999,-1.5012,-1.5007,-1.5003,-1.4966,-1.496,-1.4958,-1.4958,-1.4936,-1.4936,-1.4936,-1.4935,-1.4978,-1.498,0,0,0,0,0,0,-1.5113,-1.5104,-1.5077,-1.5074,-1.5077,-1.5045,-1.5039,-1.5035,-1.4999,-1.4992,-1.5004,-1.5,-1.4962,-1.4959,-1.4956,-1.4983,-1.4936,-1.4935,-1.4935,-1.4977,-1.4979,-1.498,0,0,0,0,0,0,-1.5114,-1.5111,-1.5079,-1.5088,-1.5083,-1.5046,-1.5042,-1.5035,-1.5029,-1.4994,-1.4986,-1.5006,-1.4961,-1.4957,-1.4962,-1.4981,-1.4935,-1.4935,-1.4975,-1.4977,-1.4979,-1.5038,0,0,0,0,0,0,-1.5115,-1.5112,-1.5121,-1.5089,-1.5083,-1.5086,-1.5043,-1.5035,-1.5029,-1.5023,-1.4993,-1.4987,-1.4959,-1.4963,-1.4962,-1.4979,-1.4934,-1.4973,-1.4976,-1.4979,-1.5034,-1.5041,-1.5048,0,0,0,0,0,-1.5117,-1.5139,-1.5122,-1.5119,-1.5093,-1.5087,-1.5083,-1.5051,-1.503,-1.5039,-1.5016,-1.4988,-1.4979,-1.4964,-1.4962,-1.498,-1.4972,-1.4975,-1.4979,-1.5031,-1.504,-1.5048,0,0,0,0,0,0,-1.5175,-1.5134,-1.5115,-1.5127,-1.5111,-1.5077,-1.5087,-1.5062,-1.5052,-1.5047,-1.5008,-1.5001,-1.5011,-1.4996,-1.498,-1.5002,-1.4971,-1.4974,-1.5012,-1.502,-1.5027,-1.5031,-1.4934,0,0,0,0,0,-1.5189,-1.5187,-1.5152,-1.5166,-1.5159,-1.5125,-1.5121,-1.5098,-1.5079,-1.5072,-1.5049,-1.5032,-1.5026,-1.5022,-1.5014,-1.5031,-1.5024,-1.5042,-1.505,-1.5056,-1.5059,-1.5066,-1.5074,-1.4991,-1.4991,-1.4991,0,0,-1.5218,-1.5196,-1.5197,-1.5177,-1.5162,-1.5161,-1.512,-1.512,-1.5119,-1.5072,-1.5075,-1.5058,-1.5037,-1.5048,-1.5052,-1.5036,-1.508,-1.506,-1.5065,-1.5064,-1.5071,-1.5079,-1.5086,-1.4993,-1.4993,-1.4993,0,0,-1.5271,-1.5254,-1.5264,-1.525,-1.5227,-1.5204,-1.5207,-1.5177,-1.5164,-1.5166,-1.5131,-1.5129,-1.5119,-1.5105,-1.5096,-1.5144,-1.5117,-1.5143,-1.518,-1.5188,-1.5194,-1.52,-1.5217,-1.5223,-1.5146,-1.5146,-1.5146,0,-1.531,-1.5307,-1.5273,-1.5275,-1.5268,-1.5226,-1.5236,-1.5223,-1.5199,-1.5195,-1.5177,-1.5163,-1.5145,-1.5153,-1.5165,-1.5159,-1.5161,-1.5146,-1.5196,-1.5202,-1.5206,-1.5222,-1.5228,-1.5149,-1.5149,-1.5148,-1.5148,0,-1.5357,-1.5355,-1.5366,-1.5344,-1.5338,-1.5344,-1.5311,-1.5308,-1.5286,-1.5265,-1.5268,-1.5246,-1.5232,-1.5232,-1.521,-1.5237,-1.5227,-1.5204,-1.5172,-1.5218,-1.5232,-1.5238,-1.5154,-1.5153,-1.5152,-1.5151,0,0,-1.5444,-1.5403,-1.5408,-1.5397,-1.5369,-1.5367,-1.5372,-1.5359,-1.5358,-1.5343,-1.5345,-1.5338,-1.5315,-1.5306,-1.5282,-1.5289,-1.5328,-1.5264,-1.5263,-1.5277,-1.5356,-1.5374,-1.5381,-1.531,-1.5311,-1.5312,-1.5357,0,-1.5492,-1.5497,-1.5466,-1.548,-1.5478,-1.5438,-1.5442,-1.5425,-1.5406,-1.5401,-1.538,-1.5375,-1.5346,-1.534,-1.5345,-1.5322,-1.5344,-1.5319,-1.5312,-1.5313,-1.5319,-1.5389,-1.5408,-1.5451,-1.5363,-1.5364,-1.5364,0,-1.5548,-1.5536,-1.5549,-1.5521,-1.5519,-1.5523,-1.5508,-1.5505,-1.5485,-1.547,-1.546,-1.5432,-1.5434,-1.5405,-1.5407,-1.5391,-1.5386,-1.5375,-1.5376,-1.5374,-1.5341,-1.5388,-1.5464,-1.5471,-1.5373,-1.5372,-1.5371,0,-1.561,-1.5598,-1.5604,-1.5596,-1.5563,-1.5567,-1.5553,-1.5532,-1.5526,-1.5513,-1.5509,-1.5497,-1.5491,-1.5482,-1.5452,-1.5433,-1.5458,-1.5425,-1.5445,-1.5446,-1.5452,-1.5452,-1.5529,-1.545,-1.545,-1.545,-1.545,0,-1.5666,-1.5676,-1.5632,-1.5636,-1.5645,-1.561,-1.562,-1.5603,-1.5584,-1.5584,-1.5549,-1.5549,-1.5509,-1.5505,-1.5482,-1.5487,-1.5485,-1.5473,-1.5466,-1.5476,-1.5477,-1.5472,-1.5468,-1.5451,-1.5451,-1.5451,-1.545,0,-1.5738,-1.5708,-1.5713,-1.5681,-1.5673,-1.5682,-1.5654,-1.5656,-1.5635,-1.5635,-1.5633,-1.5599,-1.5592,-1.5562,-1.5548,-1.5532,-1.5545,-1.5533,-1.5552,-1.5548,-1.557,-1.5568,-1.5645,-1.5654,-1.557,-1.5571,-1.5572,0,-1.5775,-1.5782,-1.5751,-1.5748,-1.5736,-1.5732,-1.5726,-1.5692,-1.5687,-1.5665,-1.567,-1.566,-1.5651,-1.5642,-1.5616,-1.5605,-1.5592,-1.562,-1.559,-1.56,-1.5592,-1.5592,-1.5593,-1.5626,-1.5627,-1.5628,-1.5629,0,-1.5846,-1.5831,-1.5823,-1.5811,-1.5805,-1.5793,-1.578,-1.5779,-1.5741,-1.5737,-1.573,-1.5723,-1.5709,-1.57,-1.5685,-1.567,-1.5643,-1.5639,-1.5643,-1.5652,-1.5663,-1.5657,-1.5569,-1.5637,-1.5636,-1.5636,-1.5635,-1.5635,-1.5901,-1.5905,-1.5884,-1.5877,-1.5863,-1.5851,-1.5851,-1.583,-1.5823,-1.5809,-1.5789,-1.5785,-1.5765,-1.5741,-1.5729,-1.5725,-1.571,-1.5716,-1.5717,-1.5719,-1.5724,-1.5664,-1.5722,-1.5722,-1.5722,-1.5721,-1.5721,0,-1.5969,-1.5953,-1.5947,-1.5929,-1.5924,-1.5899,-1.5883,-1.588,-1.5876,-1.586,-1.5851,-1.5843,-1.5834,-1.5808,-1.5796,-1.5798,-1.5785,-1.5796,-1.5796,-1.5793,-1.5738,-1.5736,-1.5807,-1.5807,-1.5807,-1.5807,-1.5807,-1.5807,-1.6004,-1.6009,-1.5992,-1.599,-1.5974,-1.5969,-1.5962,-1.5951,-1.5938,-1.593,-1.5923,-1.5905,-1.5885,-1.5871,-1.5862,-1.5854,-1.5852,-1.5867,-1.5855,-1.5805,-1.5797,-1.5789,-1.5786,-1.5866,-1.5867,-1.591,-1.591,-1.591]},{"header":{"parameterUnit":"m.s-1","parameterCategory":1,"la1":30.2991,"la2":30.254,"lo1":-89.0895,"lo2":-89.0444,"dy":0.0017,"dx":0.0017,"nx":28,"ny":28,"refTime":"2024-07-07T09:00:00:Z","depth":0,"parameterNumber":3,"parameterNumberName":"V-component_of_WINDS"},"data":[0,0,0,0,0,0,0,0,0,0,0,0,0,0,0,0,0,0,0,0,0,0,0,0,0,0,0,0,0,0,0,0,0,0,0,0,0,0,0,0,0,0,0,0,0,0,0,0,0,0,0,0,0,0,0,0,0,0,4.4979,4.4979,0,4.4993,4.4994,4.4994,4.4919,4.4917,4.4915,4.4913,4.4926,4.4928,4.493,0,0,0,0,0,0,0,0,0,0,0,0,0,4.4885,4.4888,4.4979,4.4979,4.498,4.4993,4.4994,4.4994,4.492,4.4917,4.4914,4.4912,4.4925,4.4928,4.4931,0,0,0,0,0,0,0,0,0,0,0,0,0,4.4916,4.4888,4.4979,4.4944,4.4941,4.4993,4.4994,4.4994,4.492,4.4917,4.4914,4.4911,4.4924,4.4928,4.4931,4.5017,0,0,4.4942,4.4943,0,0,0,0,0,0,0,0,4.4914,4.4919,4.4949,4.4947,4.4944,4.4951,4.4965,4.5001,4.4921,4.4928,4.4913,4.4909,4.4937,4.4939,4.4949,4.5017,4.5018,4.4942,4.4944,4.4946,4.4947,0,0,0,0,0,0,0,4.4912,4.4918,4.4985,4.495,4.4946,4.4927,4.4928,4.4972,4.495,4.4927,4.4922,4.4925,4.4935,4.4945,4.4948,4.5018,4.4942,4.4945,4.4947,4.4949,4.5156,4.5159,0,0,0,0,0,0,4.4915,4.4917,4.4984,4.4985,4.4921,4.4931,4.4932,4.4952,4.495,4.4946,4.4927,4.4921,4.4941,4.4944,4.4949,4.5047,4.4946,4.4949,4.4951,4.5153,4.5157,4.5161,0,0,0,0,0,0,4.4913,4.4922,4.4984,4.495,4.4956,4.4936,4.4959,4.4954,4.4965,4.495,4.4945,4.4943,4.4939,4.4944,4.5,4.5047,4.495,4.4954,4.5149,4.5154,4.5159,4.5247,0,0,0,0,0,0,4.4911,4.4921,4.4954,4.4951,4.4958,4.5036,4.4962,4.4957,4.4971,4.4963,4.4963,4.496,4.4937,4.4995,4.5004,4.505,4.4956,4.5144,4.5151,4.5157,4.524,4.5254,4.5267,0,0,0,0,0,4.4908,4.4979,4.4957,4.4965,4.4999,4.5039,4.5043,4.5015,4.4975,4.5008,4.4998,4.496,4.5041,4.5002,4.501,4.5059,4.5141,4.5149,4.5157,4.5233,4.5251,4.5267,0,0,0,0,0,0,4.4988,4.4978,4.4953,4.5025,4.5034,4.5026,4.5066,4.5035,4.5055,4.5047,4.5011,4.5012,4.5074,4.5072,4.5028,4.5141,4.5084,4.5094,4.5139,4.5156,4.517,4.5168,4.4959,0,0,0,0,0,4.5014,4.5048,4.5037,4.5102,4.5107,4.5086,4.5103,4.5081,4.5088,4.5091,4.5085,4.5093,4.5119,4.5138,4.5162,4.5239,4.5237,4.5277,4.529,4.5302,4.531,4.5349,4.5366,4.5186,4.5186,4.5186,0,0,4.5068,4.5067,4.509,4.5118,4.5121,4.5156,4.509,4.513,4.5155,4.5096,4.5149,4.5145,4.5151,4.5218,4.5247,4.5219,4.536,4.5311,4.5321,4.5323,4.5359,4.5376,4.5391,4.5191,4.519,4.5189,0,0,4.5184,4.5188,4.5241,4.5246,4.5253,4.5239,4.5252,4.5249,4.5244,4.5297,4.5253,4.5282,4.533,4.5336,4.5345,4.5463,4.5428,4.5472,4.5543,4.5581,4.5596,4.5608,4.5649,4.5664,4.5481,4.5481,4.5481,0,4.5251,4.5302,4.5272,4.5315,4.5327,4.5277,4.533,4.5336,4.5351,4.536,4.5328,4.5386,4.5387,4.5453,4.5482,4.5492,4.5504,4.5471,4.5596,4.5608,4.5619,4.5658,4.5673,4.5486,4.5486,4.5485,4.5485,0,4.5382,4.5419,4.5461,4.5476,4.5493,4.5541,4.5518,4.5539,4.5516,4.5504,4.5558,4.5557,4.5579,4.5594,4.5571,4.5657,4.5639,4.5602,4.5544,4.5642,4.5677,4.5692,4.5494,4.5492,4.549,4.5489,0,0,4.5549,4.5547,4.5563,4.5568,4.5572,4.5599,4.5644,4.5666,4.5684,4.5696,4.5732,4.5773,4.5739,4.5749,4.5727,4.5761,4.5853,4.572,4.5719,4.5743,4.5946,4.5972,4.599,4.583,4.5833,4.5835,4.5945,0,4.5661,4.5738,4.5712,4.579,4.5822,4.5775,4.5814,4.582,4.581,4.5836,4.5825,4.5854,4.5808,4.5814,4.5845,4.5835,4.5893,4.5827,4.5862,4.5864,4.5861,4.6009,4.6037,4.614,4.5958,4.5961,4.5962,0,4.5803,4.582,4.5901,4.5898,4.591,4.5946,4.5963,4.5989,4.5994,4.5985,4.5997,4.5967,4.601,4.5953,4.6011,4.5967,4.598,4.5977,4.598,4.5981,4.5918,4.6012,4.6173,4.6188,4.5984,4.5982,4.5981,0,4.5914,4.5958,4.6011,4.6018,4.6016,4.6042,4.6042,4.6044,4.6059,4.6075,4.6083,4.6104,4.6115,4.6131,4.6107,4.6068,4.6168,4.611,4.616,4.6161,4.6182,4.6181,4.6346,4.6194,4.6193,4.6193,4.6193,0,4.6041,4.6092,4.6061,4.6094,4.6149,4.6119,4.6174,4.6169,4.6172,4.6202,4.6162,4.6192,4.6159,4.6185,4.6167,4.6217,4.6223,4.6215,4.621,4.6218,4.6219,4.6225,4.6217,4.6197,4.6196,4.6195,4.6195,0,4.6175,4.6156,4.6211,4.6205,4.6204,4.6245,4.6239,4.6269,4.6257,4.6296,4.6303,4.6284,4.6313,4.6291,4.6319,4.6307,4.6372,4.6357,4.637,4.6366,4.6417,4.6412,4.659,4.6612,4.6447,4.6449,4.645,0,4.6256,4.6295,4.6292,4.631,4.6313,4.6342,4.6356,4.6328,4.6345,4.6353,4.6382,4.6407,4.6425,4.6473,4.6461,4.6482,4.6466,4.6528,4.6469,4.6476,4.6465,4.6463,4.6466,4.6539,4.6541,4.6542,4.6544,0,4.6403,4.6392,4.6415,4.6434,4.6453,4.6467,4.6478,4.6494,4.6465,4.6486,4.6514,4.6529,4.6557,4.6582,4.6599,4.6599,4.6566,4.6562,4.6575,4.6583,4.6589,4.6585,4.6401,4.6558,4.6557,4.6556,4.6555,4.6554,4.6512,4.6543,4.6546,4.6572,4.6578,4.6588,4.6615,4.6607,4.663,4.6651,4.6633,4.6667,4.667,4.669,4.6693,4.6719,4.6694,4.6712,4.6717,4.6722,4.6728,4.6586,4.6722,4.6722,4.6721,4.6721,4.6721,0,4.6655,4.6655,4.6679,4.6695,4.6716,4.6684,4.6694,4.6713,4.6744,4.675,4.6769,4.6801,4.6825,4.6816,4.6837,4.6859,4.6845,4.6865,4.6863,4.6863,4.675,4.6737,4.6877,4.6877,4.6876,4.6876,4.6876,4.6876,4.6732,4.6782,4.6771,4.6823,4.6822,4.6855,4.6864,4.6873,4.6877,4.6915,4.6935,4.6929,4.6928,4.6949,4.6969,4.6965,4.6974,4.7,4.6991,4.6886,4.6871,4.6856,4.6843,4.7003,4.7003,4.7101,4.7102,4.7103]}]]